Weather History for KMSO - August, 2014

Change the Weather History Date:

Monday, August 4, 2014

  Actual Average Record
Temperature  
Mean Temperature 74 °F 70 °F  
Max Temperature 90 °F 88 °F 105 °F (1961)
Min Temperature 57 °F 52 °F 37 °F (1980)
Degree Days  
Heating Degree Days 0 1  
Month to date heating degree days 0 4  
Since 1 June heating degree days 183 202  
Since 1 July heating degree days 6 42  
Cooling Degree Days 9 6  
Month to date cooling degree days 38 24  
Year to date cooling degree days 278 218  
Since 1 June cooling degree days 278 212  
Growing Degree Days 24 (Base 50)    
Moisture  
Dew Point 48 °F    
Average Humidity 47    
Maximum Humidity 67    
Minimum Humidity 26    
Precipitation  
Precipitation 0.00 in 0.03 in 0.25 in (1919)
Month to date precipitation 0.05 0.13  
Year to date precipitation 9.13 8.97  
Snow  
Snow 0.00 in - - ()
Month to date snowfall 0.0  
Year to date snowfall 51.9  
Since 1 July snowfall 0.0  
Snow Depth 0.00 in    
Sea Level Pressure  
Sea Level Pressure 29.97 in    
Wind  
Wind Speed 9 mph (ENE)    
Max Wind Speed 24 mph    
Max Gust Speed 29 mph    
Visibility 10 miles    
Events      
T = Trace of Precipitation, MM = Missing Value Source: NWS Daily Summary

Daily Weather History Graph

Daily Weather History Graph

Search for Another Location

Airport or City:

Trip Planner

Search our weather history database for the weather conditions in past years. The results will help you decide how hot, cold, wet, or windy it might be!

Date:

Astronomy

Aug. 04, 2014 Rise Set
Actual Time 6:19 AM MDT 9:04 PM MDT
Civil Twilight 5:44 AM MDT 9:39 PM MDT
Nautical Twilight 5:00 AM MDT 10:23 PM MDT
Astronomical Twilight 4:08 AM MDT 11:14 PM MDT
Moon 3:19 PM MDT (8/4) 12:32 AM MDT (8/4)
Length of Visible Light 15h 54m
Length of Day
14h 44m
First Quarter, 58% of the Moon is Illuminated
Aug 4
First Quarter
Aug 10
Full
Aug 17
Last Quarter
Aug 25
New
Sep 2
First Quarter

Hourly Weather History & Observations

Time (MDT) Temp. Dew Point Humidity Pressure Visibility Wind Dir Wind Speed Gust Speed Precip Events Conditions
12:53 AM 64.0 °F 41.0 °F 43% 30.00 in 10.0 mi NW 5.8 mph - N/A   Clear
1:53 AM 64.9 °F 41.0 °F 42% 30.00 in 10.0 mi Calm Calm - N/A   Clear
2:53 AM 62.6 °F 42.8 °F 48% 30.07 in 10.0 mi Calm Calm - N/A   Clear
3:53 AM 62.6 °F 42.8 °F 48% 30.06 in 10.0 mi Calm Calm - N/A   Clear
4:53 AM 62.1 °F 42.1 °F 48% 30.00 in 10.0 mi Variable 4.6 mph - N/A   Clear
5:53 AM 57.0 °F 45.0 °F 64% 30.01 in 10.0 mi NW 3.5 mph - N/A   Clear
6:53 AM 57.9 °F 46.0 °F 65% 30.03 in 10.0 mi Calm Calm - N/A   Clear
7:53 AM 63.0 °F 46.0 °F 54% 30.03 in 10.0 mi Calm Calm - N/A   Clear
8:53 AM 66.9 °F 46.0 °F 47% 30.02 in 10.0 mi Calm Calm - N/A   Clear
9:53 AM 72.0 °F 48.0 °F 43% 30.01 in 10.0 mi NW 5.8 mph - N/A   Clear
10:53 AM 75.9 °F 48.0 °F 37% 30.00 in 10.0 mi WNW 3.5 mph - N/A   Clear
11:53 AM 80.1 °F 48.9 °F 34% 29.98 in 10.0 mi Calm Calm - N/A   Clear
12:53 PM 84.9 °F 50.0 °F 30% 29.95 in 10.0 mi North - - N/A   Clear
1:53 PM 86.0 °F 50.0 °F 29% 29.93 in 10.0 mi North - - N/A   Clear
2:53 PM 88.0 °F 50.0 °F 27% 29.91 in 10.0 mi NNE 12.7 mph - N/A   Clear
3:53 PM 89.1 °F 50.0 °F 26% 29.88 in 10.0 mi North 15.0 mph - N/A   Clear
4:53 PM 86.0 °F 51.1 °F 30% 29.87 in 10.0 mi North 16.1 mph - N/A   Clear
5:53 PM 84.0 °F 50.0 °F 31% 29.89 in 10.0 mi East 24.2 mph 27.6 mph N/A   Clear
6:00 PM 84.0 °F 51.1 °F 32% 29.95 in 10.0 mi East 15.0 mph 27.6 mph N/A   Clear
6:53 PM 82.9 °F 51.1 °F 33% 29.91 in 10.0 mi East 18.4 mph - N/A   Mostly Cloudy
7:53 PM 80.1 °F 48.9 °F 34% 29.91 in 10.0 mi ESE 13.8 mph - N/A   Clear
8:53 PM 78.1 °F 52.0 °F 40% 29.95 in 10.0 mi ESE 16.1 mph - N/A   Scattered Clouds
9:53 PM 75.0 °F 51.1 °F 43% 29.95 in 10.0 mi ESE 13.8 mph - N/A   Clear
10:53 PM 73.0 °F 50.0 °F 44% 29.96 in 10.0 mi SSE 13.8 mph - N/A   Clear
11:53 PM 72.0 °F 48.9 °F 44% 29.96 in 10.0 mi SE 16.1 mph - N/A   Clear